Tracking 19794 objects as of 21-Jul-2019
HD Live streaming from Space Station
objects crossing your sky now

FREGAT R/B

Track FREGAT R/B now!


NORAD ID: 37848
Int'l Code: 2011-060C
Perigee: 23,608.7 km
Apogee: 23,658.0 km
Inclination: 56.4 °
Period: 862.1 minutes
Semi major axis: 30004 km
RCS: 2.697 m2 (large)
Launch date: October 21, 2011
Source: Commonwealth of Independent States (former USSR) (CIS)
Launch site: FRENCH GUIANA (FRGUI)

Note: This is a ROCKET BODY
aabbcc
Your satellite tracking list
Your tracking list is empty




NASA's NSSDC Master Catalog

Two Line Element Set (TLE):
1 37848U 11060C   19198.65202260 -.00000070 +00000-0 +00000-0 0  9997
2 37848 056.4446 053.9356 0008223 310.2705 230.2828 01.67042386047064
Source of the keplerian elements: AFSPC